{"data":{"norad_id":68689,"epoch":"2026-05-24T20:12:03.198816Z","epoch_age_seconds":85772,"freshness":"FRESH","line1":"1 68689U 26079A   26144.84170369  .00008909  00000+0  16754-3 0  9997","line2":"2 68689  51.6327  55.6720 0007493  94.5162 265.6683 15.49354393568188","mean_motion":15.49354393,"eccentricity":0.0007493,"inclination_deg":51.6327,"raan_deg":55.672,"arg_perigee_deg":94.5162,"mean_anomaly_deg":265.6683,"bstar":0.00016754,"rev_number":56818,"period_min":92.941938042448,"perigee_km":413.52071970031,"apogee_km":423.70633003688,"semimajor_km":6796.7505248686,"source":"CELESTRAK","updated_at":"2026-05-25T13:38:08.479885Z"}}